Location: Unspecified
(50.2975°N, 0.0000°E)
Time: 15:06:33
(UTC+00:00)

Tiangong 2 - Visible Passes

Search period start: 23 May 2019 00:00
Search period end: 02 June 2019 00:00
Orbit: 379 x 387 km, 42.8° (Epoch: 23 May)

Date Brightness Start Highest point End Pass type
(mag) Time Alt. Az. Time Alt. Az. Time Alt. Az.
23 May 2.5 21:10:37 10° SW 21:13:03 21° S 21:14:11 17° SSE visible
24 May 2.8 21:47:03 10° SW 21:49:05 18° SSW 21:49:05 18° SSW visible
25 May 2.6 20:47:04 10° SW 20:49:29 20° S 20:51:42 11° SE visible
26 May 3.0 21:23:46 10° SW 21:25:43 15° SSW 21:26:27 14° S visible
28 May 3.4 21:00:46 10° SW 21:02:04 12° SSW 21:03:21 10° S visible
